Temp
88 83 78 81 85 84 84 81 78 81 80 78 77 75 75 77 78 79 80 80 80 79 81 80 78 74 71 72 72 71 70 69 72 72 71 71 70 70 70 69 66 64 62 60
82 79 88 89 86 81 83 80 78 75 76 78 76 73 75 77 77 80 80 80 80 79 78 75 74 69 70 70 69 69 68 67 68 71 69 69 68 70 69 69 67 64 62 60
81 85 88 84 81 79 81 80 78 77 73 76 73 70 68 76 77 80 81 82 80 77 76 75 72 72 73 70 70 69 68 67 66 67 69 68 69 69 68 67 66 65 63 59
83 86 83 82 81 82 76 87 82 75 72 71 75 70 69 73 71 75 78 79 78 78 79 77 74 72 71 71 71 70 68 66 67 65 66 63 64 63 64 65 61 64 62 59
79 81 80 79 81 86 81 85 81 77 76 73 69 68 74 73 68 72 76 79 80 78 78 77 76 73 73 73 71 70 68 66 66 65 64 65 62 65 65 62 59 60 61 60
83 87 86 86 83 86 84 80 79 78 78 67 75 70 76 70 72 74 77 79 76 77 78 75 75 74 73 75 73 70 68 65 65 65 64 62 58 58 59 59 60 60 60 60
79 81 86 86 79 83 82 77 69 66 68 68 72 70 76 76 76 79 77 76 75 77 77 74 73 74 72 71 72 71 67 65 65 65 64 63 60 59 59 60 60 59 59 59
73 69 81 86 84 79 80 81 73 60 65 71 71 67 74 77 76 79 82 77 76 77 78 76 74 73 73 70 70 70 68 66 66 65 64 63 62 62 61 62 61 60 63 62
75 75 87 87 88 87 80 74 84 72 73 69 78 74 69 72 73 78 76 74 73 75 74 73 72 72 71 69 68 68 67 66 66 66 64 60 61 60 61 63 61 62 63 64
78 72 82 82 86 83 84 88 73 75 61 60 72 69 75 67 70 73 72 72 73 73 73 72 72 70 70 69 68 68 68 66 66 66 62 61 61 63 63 63 62 62 62 62
83 76 75 81 79 79 79 80 79 77 74 66 64 72 75 76 74 72 73 74 73 73 73 72 72 70 70 71 70 67 67 66 66 65 61 61 63 64 64 63 62 61 61 63
84 77 72 76 79 81 85 83 81 73 68 73 70 70 74 77 79 75 75 75 75 75 74 73 72 70 69 68 68 66 65 66 66 65 62 62 64 64 63 63 61 62 61 61
82 75 68 69 75 77 79 80 81 76 75 70 67 70 73 75 76 76 75 74 73 73 72 72 71 69 68 67 66 66 67 65 66 65 63 63 63 62 62 62 62 62 62 62
78 77 74 70 73 80 73 76 80 78 72 73 72 72 69 72 72 73 74 73 73 71 70 71 70 68 67 66 66 65 65 66 66 64 63 62 62 61 63 64 63 63 62 61
81 73 75 73 73 75 76 77 78 76 76 70 73 72 74 73 73 73 74 72 71 69 69 69 68 67 66 65 65 65 65 65 65 64 63 61 62 63 64 63 63 63 63 61
77 70 74 68 73 76 73 77 77 76 75 74 73 72 77 77 77 73 72 70 69 69 69 68 67 66 66 64 64 64 64 64 65 63 62 63 64 64 63 64 63 63 62 63
75 72 70 64 69 73 67 75 76 76 78 77 71 76 77 72 71 72 71 70 70 69 69 67 66 66 66 64 64 62 63 64 65 64 65 64 64 63 63 64 64 62 61 60
72 68 69 63 68 58 71 80 79 77 78 79 76 76 76 75 75 75 76 72 71 70 69 68 68 67 66 66 64 64 63 63 64 65 66 66 66 64 64 63 62 60 61 60
77 71 63 62 64 69 73 74 75 74 75 81 79 77 77 76 74 71 76 75 73 72 71 70 70 68 66 65 65 64 63 63 64 65 66 66 66 65 63 61 60 59 60 60
75 72 71 66 62 56 70 79 83 81 70 82 80 76 73 72 68 73 74 74 73 72 71 69 69 68 66 65 65 63 63 63 62 66 65 67 67 65 63 60 59 56 60 60
71 72 70 64 63 68 75 79 82 66 70 80 79 76 73 71 74 75 74 72 72 71 70 70 68 67 66 66 65 64 64 62 64 66 65 66 66 64 63 61 59 58 60 59
71 70 70 70 65 62 80 77 72 73 73 78 78 76 74 74 73 72 71 70 70 69 69 70 68 67 67 66 66 64 63 65 64 64 64 64 64 65 66 61 59 60 59 58
69 73 74 73 73 73 80 74 74 75 76 76 76 76 77 73 72 71 69 69 69 69 69 71 69 67 66 65 64 62 64 65 63 63 63 64 64 65 64 61 61 59 59 58
73 75 77 71 73 75 75 75 75 76 76 76 77 77 75 72 72 70 70 70 69 70 69 70 69 67 64 65 64 63 65 66 63 61 61 63 63 63 63 64 64 60 59 61
76 75 75 74 73 74 75 77 76 73 74 75 76 75 74 73 71 71 70 69 70 70 70 70 68 66 63 63 64 66 65 65 62 61 62 62 62 63 63 63 62 61 63 59
79 77 76 77 80 79 76 77 76 73 72 74 73 73 74 74 71 71 70 71 70 70 70 68 67 66 66 66 66 66 67 65 63 61 63 60 61 61 65 61 59 48 47 45
MSLP
1006.29 1005.74 1005.16 1005.42 1005.18 1005.05 1004.79 1005.37 1005.86 1006.98 1008.72 1009.66 1010.23 1011.27 1012.51 1013.56 1013.93 1013.95 1014.34 1015.09 1015.67 1016.59 1017.66 1018.70 1019.75 1020.89 1021.33 1021.55 1021.82 1022.08 1022.19 1022.33 1021.87 1021.44 1021.10 1020.81 1020.79 1020.93 1021.21 1021.36 1021.58 1021.55 1021.40 1021.44
1006.02 1004.77 1004.52 1004.89 1005.36 1005.59 1005.12 1005.22 1005.87 1007.99 1009.15 1009.60 1009.96 1010.84 1012.12 1012.89 1013.23 1013.40 1013.84 1014.49 1015.26 1016.26 1017.54 1018.91 1020.07 1021.17 1021.50 1021.89 1022.31 1022.54 1022.78 1022.97 1022.66 1022.04 1021.97 1021.83 1021.65 1021.38 1021.47 1021.25 1021.31 1021.42 1021.37 1021.25
1004.40 1004.02 1004.59 1005.29 1005.43 1005.45 1005.13 1004.90 1005.72 1006.82 1009.07 1009.73 1010.03 1010.39 1011.63 1012.13 1012.92 1013.24 1013.62 1014.01 1014.79 1015.88 1016.98 1018.60 1019.95 1020.66 1021.33 1022.01 1022.39 1022.87 1023.15 1023.17 1023.22 1022.77 1022.26 1021.99 1021.57 1021.33 1021.35 1021.18 1021.41 1021.16 1021.23 1021.24
1004.76 1004.68 1004.76 1004.76 1004.70 1005.14 1004.48 1004.52 1005.50 1007.18 1008.03 1007.66 1009.25 1007.63 1009.49 1010.80 1012.10 1012.78 1013.22 1013.83 1014.49 1015.56 1016.69 1018.21 1019.54 1020.51 1021.37 1021.95 1022.54 1022.97 1023.29 1023.40 1023.33 1023.41 1022.75 1022.73 1022.05 1021.83 1021.98 1021.90 1022.13 1021.39 1021.41 1021.37
1004.50 1004.59 1004.75 1004.33 1004.21 1004.53 1004.20 1004.85 1005.57 1006.80 1006.74 1007.30 1008.44 1008.38 1007.66 1009.73 1010.90 1011.72 1012.46 1013.11 1014.00 1015.77 1016.94 1018.01 1019.09 1020.41 1021.26 1021.68 1022.33 1022.93 1023.31 1023.56 1023.68 1023.62 1023.46 1022.89 1022.88 1022.60 1022.51 1022.48 1022.23 1021.83 1021.39 1021.37
1004.23 1004.73 1004.42 1003.92 1004.57 1004.44 1005.24 1005.39 1005.95 1006.25 1005.88 1005.71 1005.36 1007.31 1005.65 1008.27 1009.36 1010.60 1011.80 1013.01 1014.70 1016.09 1017.11 1018.42 1019.52 1020.46 1020.92 1021.31 1021.91 1022.72 1023.20 1023.64 1023.72 1023.62 1023.51 1023.45 1023.60 1023.36 1022.94 1022.59 1022.10 1021.81 1021.56 1021.21
1004.21 1004.17 1004.18 1004.51 1004.47 1005.07 1004.77 1004.32 1004.05 1004.29 1003.86 1003.80 1005.62 1006.57 1005.88 1007.61 1008.90 1009.69 1011.27 1013.33 1015.14 1016.20 1017.27 1018.42 1019.34 1020.01 1020.74 1021.40 1021.86 1022.29 1023.17 1023.34 1023.67 1023.61 1023.46 1023.50 1023.56 1023.27 1022.91 1022.48 1022.15 1021.80 1021.47 1021.07
1002.95 1003.16 1003.42 1003.73 1003.21 1003.16 1003.38 1002.96 1002.22 1002.28 1002.53 1003.01 1005.58 1005.60 1006.28 1008.12 1009.64 1010.26 1011.17 1013.47 1014.94 1015.99 1017.09 1018.19 1019.28 1019.99 1020.61 1021.55 1022.09 1022.36 1022.76 1023.19 1023.54 1023.63 1023.55 1023.69 1023.49 1023.17 1022.79 1022.45 1022.32 1021.82 1021.31 1021.10
1002.13 1001.84 1002.41 1002.84 1002.93 1002.81 1002.77 1003.10 1002.69 1002.96 1003.53 1003.69 1003.32 1005.19 1007.84 1009.02 1009.72 1010.35 1011.75 1013.57 1014.94 1016.08 1017.41 1018.69 1019.72 1020.32 1020.98 1021.67 1022.30 1022.47 1022.84 1023.27 1023.64 1023.66 1023.80 1023.85 1023.70 1023.37 1022.94 1022.51 1022.17 1021.76 1021.34 1021.07
1002.61 1002.04 1002.50 1003.04 1003.28 1003.23 1002.30 1002.12 1002.78 1002.84 1002.50 1002.48 1002.67 1004.61 1005.13 1007.91 1009.31 1010.55 1012.04 1013.60 1015.06 1016.54 1017.64 1018.93 1019.81 1020.59 1021.20 1021.84 1022.34 1022.72 1022.94 1023.31 1023.67 1023.66 1023.92 1023.81 1023.57 1023.33 1023.02 1022.63 1022.22 1021.82 1021.41 1021.21
1002.74 1002.65 1002.62 1003.02 1002.60 1001.86 1002.48 1001.98 1002.37 1002.60 1002.74 1002.55 1002.84 1003.44 1006.09 1006.79 1008.69 1010.37 1011.93 1013.33 1015.03 1016.31 1017.59 1018.81 1019.81 1020.62 1021.33 1021.74 1022.09 1022.68 1023.00 1023.27 1023.51 1023.75 1024.05 1023.81 1023.51 1023.24 1023.01 1022.72 1022.38 1022.03 1021.67 1021.01
1002.55 1002.64 1002.17 1002.32 1003.04 1002.78 1001.74 1001.35 1001.93 1001.96 1002.34 1002.99 1004.08 1005.14 1007.21 1007.70 1008.70 1010.54 1011.81 1013.42 1014.98 1016.29 1017.57 1018.72 1019.68 1020.49 1021.17 1021.83 1022.37 1022.83 1023.29 1023.39 1023.61 1023.74 1023.89 1023.75 1023.50 1023.29 1023.10 1022.80 1022.63 1022.15 1021.76 1021.31
1002.56 1002.43 1002.31 1002.88 1003.21 1003.14 1002.18 1002.29 1002.25 1002.76 1002.88 1002.85 1003.97 1005.14 1007.67 1008.36 1009.27 1010.82 1011.96 1013.64 1015.09 1016.39 1017.66 1018.64 1019.61 1020.33 1021.17 1021.98 1022.58 1022.89 1023.22 1023.47 1023.71 1023.77 1023.68 1023.64 1023.56 1023.38 1023.18 1022.87 1022.76 1022.41 1022.15 1021.63
1002.34 1002.27 1001.89 1001.84 1001.88 1001.96 1002.36 1002.57 1002.57 1002.67 1002.62 1002.65 1003.61 1005.06 1007.27 1008.37 1009.63 1011.07 1012.34 1013.89 1015.10 1016.57 1017.68 1018.51 1019.44 1020.39 1021.27 1022.02 1022.54 1022.98 1023.30 1023.56 1023.70 1023.68 1023.60 1023.59 1023.55 1023.48 1023.17 1022.88 1022.61 1022.34 1022.18 1021.89
1002.60 1002.31 1002.89 1003.20 1003.25 1002.91 1002.63 1002.71 1002.83 1002.81 1003.12 1003.50 1004.10 1005.11 1006.49 1008.38 1009.73 1011.14 1012.61 1014.06 1015.26 1016.54 1017.69 1018.55 1019.42 1020.44 1021.37 1022.08 1022.67 1023.08 1023.34 1023.55 1023.64 1023.54 1023.45 1023.54 1023.44 1023.21 1023.12 1022.90 1022.69 1022.47 1022.02 1021.89
1003.15 1003.19 1003.42 1003.85 1003.92 1003.16 1003.06 1003.07 1003.24 1003.51 1003.80 1004.16 1004.83 1005.56 1007.32 1008.65 1009.97 1011.52 1012.77 1014.03 1015.18 1016.38 1017.53 1018.59 1019.47 1020.40 1021.21 1021.93 1022.53 1022.99 1023.30 1023.48 1023.52 1023.48 1023.36 1023.34 1023.18 1023.02 1023.01 1022.84 1022.61 1022.41 1022.32 1021.99
1002.99 1003.24 1003.57 1004.17 1004.25 1003.42 1003.82 1003.50 1003.56 1003.75 1003.96 1004.13 1004.70 1005.82 1007.55 1009.10 1010.14 1011.30 1012.51 1013.90 1015.07 1016.30 1017.45 1018.57 1019.58 1020.49 1021.24 1022.03 1022.55 1022.92 1023.20 1023.52 1023.43 1023.29 1023.04 1023.07 1023.07 1022.94 1022.91 1022.72 1022.52 1022.57 1022.46 1022.30
1003.14 1003.72 1003.94 1004.33 1004.47 1004.29 1004.16 1004.25 1004.08 1003.86 1004.16 1004.79 1005.62 1006.67 1007.86 1008.99 1010.29 1011.53 1012.60 1013.77 1014.94 1016.25 1017.38 1018.53 1019.41 1020.34 1021.28 1022.03 1022.62 1022.92 1023.25 1023.37 1023.31 1023.08 1022.86 1022.87 1022.89 1022.78 1022.74 1022.59 1022.63 1022.81 1022.61 1022.20
1003.05 1003.24 1004.24 1004.79 1004.47 1004.40 1004.10 1004.38 1004.28 1004.10 1003.97 1004.74 1005.54 1007.03 1008.27 1009.49 1010.80 1011.84 1012.66 1013.79 1014.94 1016.26 1017.41 1018.52 1019.32 1020.32 1021.28 1021.98 1022.49 1022.82 1023.00 1023.13 1023.10 1022.88 1022.77 1022.74 1022.74 1022.60 1022.63 1022.85 1022.94 1022.99 1022.73 1022.30
1003.29 1003.34 1003.33 1003.86 1004.40 1004.27 1004.03 1003.93 1004.46 1004.62 1004.13 1004.54 1005.86 1007.30 1008.52 1009.95 1010.24 1010.38 1012.63 1013.89 1015.16 1016.51 1017.58 1018.58 1019.45 1020.37 1021.24 1021.96 1022.52 1022.70 1022.70 1022.78 1022.82 1022.81 1022.92 1022.86 1022.77 1022.64 1022.69 1023.05 1023.03 1023.09 1022.68 1022.18
1002.94 1003.05 1002.92 1003.28 1003.95 1003.83 1004.27 1004.52 1005.07 1005.15 1005.36 1005.36 1006.31 1007.63 1008.90 1009.70 1010.14 1010.77 1012.70 1014.23 1015.55 1016.73 1017.87 1018.93 1019.75 1020.30 1021.15 1021.98 1022.50 1022.54 1022.57 1022.65 1022.75 1023.05 1023.03 1022.86 1022.75 1022.73 1022.89 1022.93 1023.05 1022.89 1022.39 1022.11
1002.75 1002.79 1002.87 1003.39 1003.55 1003.72 1004.35 1005.23 1005.44 1006.02 1006.44 1006.46 1007.06 1008.18 1009.24 1010.22 1011.22 1012.15 1013.43 1014.63 1015.85 1016.92 1018.11 1018.93 1019.68 1020.24 1021.15 1021.92 1022.17 1022.33 1022.45 1022.69 1023.00 1023.05 1022.95 1022.75 1022.70 1022.65 1022.54 1022.87 1022.81 1022.50 1022.25 1021.91
1003.43 1003.52 1003.01 1003.48 1003.61 1004.63 1004.75 1005.77 1006.61 1006.83 1006.83 1007.30 1007.85 1008.71 1009.51 1010.75 1011.67 1012.87 1014.03 1015.04 1016.15 1017.23 1018.16 1018.77 1019.40 1020.19 1021.28 1021.90 1022.41 1022.53 1022.46 1022.81 1022.94 1022.92 1022.81 1022.70 1022.63 1022.46 1022.49 1022.65 1022.34 1022.26 1022.06 1021.83
1003.25 1003.70 1003.31 1003.87 1004.37 1004.81 1005.63 1006.53 1007.08 1007.47 1007.61 1008.08 1008.60 1009.32 1010.31 1011.05 1012.13 1013.32 1014.49 1015.33 1016.41 1017.37 1018.15 1018.72 1019.29 1019.86 1020.79 1021.66 1022.22 1022.59 1022.41 1022.58 1022.82 1022.76 1022.63 1022.54 1022.37 1022.38 1022.37 1022.23 1022.06 1022.24 1022.00 1021.57
1003.07 1003.53 1003.55 1003.76 1004.49 1005.18 1005.75 1006.42 1007.21 1007.97 1008.38 1008.82 1009.41 1010.16 1010.86 1011.58 1012.64 1013.68 1014.75 1015.61 1016.45 1017.34 1018.03 1018.75 1019.36 1019.78 1020.66 1021.47 1021.89 1022.08 1022.32 1022.47 1022.42 1022.47 1022.48 1022.38 1022.14 1022.03 1022.19 1022.22 1022.26 1022.37 1022.21 1022.54
1002.99 1002.92 1003.12 1002.69 1003.63 1004.56 1005.37 1006.59 1007.77 1008.34 1008.84 1009.39 1009.96 1010.76 1011.53 1012.06 1013.00 1014.07 1015.03 1015.77 1016.57 1017.36 1018.01 1018.80 1019.45 1020.13 1020.39 1020.90 1021.30 1021.70 1022.22 1022.39 1022.30 1022.17 1022.11 1022.57 1022.26 1022.10 1021.74 1022.09 1022.37 1022.76 1022.75 1022.68
Wind_Speed
12 11 14 16 16 7 5 10 9 8 5 12 10 9 13 15 15 14 13 11 10 9 9 9 7 9 8 8 10 11 12 13 11 9 10 9 9 8 8 8 10 11 10 10
9 15 15 13 14 8 12 11 7 3 4 11 7 10 11 16 17 15 13 13 11 10 11 9 8 7 8 9 9 10 10 11 11 8 8 6 7 7 7 8 10 12 12 11
14 13 10 10 11 13 13 13 11 7 9 6 5 10 14 16 15 15 12 10 11 11 12 10 9 7 8 8 9 9 10 10 11 12 7 7 6 6 9 10 11 11 14 11
14 6 11 13 15 17 17 18 9 11 15 5 15 2 16 17 16 14 15 14 12 12 11 11 10 8 7 8 8 9 9 11 10 12 9 10 8 9 9 10 8 10 13 11
11 13 14 12 15 17 11 8 16 17 12 6 14 8 11 15 15 17 17 15 12 11 11 11 9 9 7 7 7 8 9 10 9 10 10 9 11 9 9 8 10 11 10 11
13 0 12 11 3 9 10 13 13 11 7 11 13 13 6 12 17 17 16 11 10 12 12 11 11 8 7 7 7 8 9 8 9 9 10 11 11 9 8 9 9 9 8 7
15 15 6 10 14 17 11 17 9 11 10 7 6 8 9 8 5 14 16 14 14 13 13 12 10 8 5 6 7 7 8 9 9 9 10 10 9 8 8 10 9 10 9 9
13 16 17 16 14 11 19 14 11 6 8 3 5 7 6 5 4 5 14 15 15 14 12 11 9 7 7 6 7 8 8 8 9 9 9 9 9 7 7 8 8 7 8 9
13 9 17 10 10 11 14 9 4 5 3 11 2 6 7 7 8 12 16 16 15 13 12 11 9 7 7 7 7 8 8 8 8 8 8 8 8 8 8 10 9 8 9 9
3 7 10 7 9 3 9 12 7 9 9 9 4 6 6 13 14 15 17 16 15 13 13 10 8 7 7 6 7 7 7 7 7 8 8 7 6 8 9 9 9 11 11 11
9 5 8 9 11 12 7 8 5 6 5 10 10 3 6 6 15 17 17 16 15 14 13 10 8 8 7 5 7 6 6 6 6 7 6 6 7 7 8 9 10 10 10 11
14 4 7 7 2 5 5 9 11 9 5 4 7 5 3 1 12 14 15 15 14 13 12 10 8 8 6 6 5 6 5 5 5 6 6 5 6 7 8 9 12 12 12 11
11 7 8 8 6 2 8 4 4 2 5 8 9 4 2 7 12 13 15 15 14 13 11 9 8 7 6 5 5 5 3 5 5 5 5 6 7 7 8 9 10 10 11 13
10 4 9 7 5 4 5 8 8 8 7 2 8 4 6 10 14 15 15 15 15 12 11 9 7 7 6 4 4 4 3 4 4 5 5 6 8 7 7 8 9 10 10 11
7 7 5 4 3 2 2 10 9 8 0 6 8 6 5 12 15 15 15 15 14 13 12 9 8 7 6 5 5 5 3 3 2 4 6 6 6 6 6 7 9 10 10 9
4 5 7 3 4 7 3 6 5 5 3 1 2 3 1 11 12 15 16 16 15 14 12 10 8 8 7 5 4 5 4 3 1 3 5 5 5 6 6 6 8 9 9 9
6 7 6 4 1 7 7 11 11 8 5 3 7 6 12 14 15 17 17 16 15 13 12 10 9 8 6 5 4 5 5 3 1 1 3 4 5 5 5 6 6 9 10 10
9 6 2 5 6 9 5 1 3 7 5 7 4 8 11 11 12 13 15 15 14 13 11 10 9 8 7 5 5 5 5 5 3 1 2 3 2 3 4 5 7 8 8 8
4 5 6 5 6 2 8 8 10 10 9 10 7 9 10 11 12 11 13 13 12 12 10 10 9 9 7 5 5 6 6 5 5 2 1 1 2 3 6 7 6 6 7 9
4 2 2 4 11 6 4 7 5 3 10 13 11 13 15 15 11 10 16 14 13 12 11 11 11 10 8 6 4 5 6 5 5 2 1 2 1 3 4 5 5 5 7 6
6 3 8 7 6 5 5 8 7 9 5 10 12 13 16 14 6 16 19 15 14 12 12 12 11 9 7 6 4 3 3 5 4 3 4 3 2 4 4 5 6 4 7 6
7 6 5 4 6 11 10 11 8 5 3 8 9 12 14 8 11 16 17 16 16 15 14 13 10 9 8 6 3 1 0 2 4 4 5 5 4 5 3 6 5 7 6 6
5 4 1 4 5 5 10 6 5 2 5 7 10 12 14 13 15 16 16 16 15 15 12 10 10 10 8 6 4 3 3 1 5 5 6 5 5 6 4 6 6 5 5 6
5 5 3 4 6 5 8 6 3 2 3 7 10 14 14 15 16 16 15 15 14 13 11 9 9 9 8 6 5 6 4 1 4 5 5 5 6 5 4 6 5 4 6 4
4 9 6 3 4 3 6 8 6 7 9 11 12 14 13 16 16 15 15 15 14 12 11 9 7 7 8 6 6 5 3 1 4 4 4 5 4 3 3 4 5 6 4 6
7 6 6 2 8 2 5 11 10 12 12 13 15 14 13 14 15 15 14 13 13 12 11 8 7 7 7 7 5 3 2 2 3 2 2 3 4 4 3 4 4 4 4 6
Wind_Direction
189 191 197 189 211 359 265 216 213 214 102 201 219 201 189 183 199 195 187 185 175 178 144 129 107 86 88 69 57 42 38 25 8 11 6 7 8 10 7 14 13 4 8 4
180 221 203 200 211 244 233 216 174 134 207 216 201 220 202 195 207 201 197 190 185 171 163 142 121 113 91 78 65 52 40 32 19 18 19 8 10 21 5 9 11 10 6 4
216 211 138 189 193 208 220 222 181 234 166 224 208 219 213 210 209 213 213 214 196 185 176 162 145 129 105 79 60 54 42 33 30 4 22 9 20 19 12 10 13 7 11 359
234 156 199 207 213 215 236 224 190 163 186 246 203 303 194 195 201 214 215 213 210 188 166 162 151 130 106 87 70 54 44 31 37 22 29 30 14 13 19 16 8 2 17 13
205 202 203 213 218 208 255 189 180 184 215 178 192 262 103 186 204 209 211 212 209 155 175 160 145 126 110 92 70 55 45 37 40 39 31 16 21 12 21 10 14 11 24 20
262 144 216 222 169 206 146 143 157 189 192 234 170 225 193 172 214 198 196 179 159 174 154 135 123 130 109 90 78 60 38 47 37 38 36 31 24 8 4 5 7 9 15 16
213 224 198 163 127 155 191 169 178 216 207 276 122 220 287 151 170 190 182 160 169 163 149 144 151 125 108 77 53 47 44 49 41 32 30 29 16 9 1 359 9 3 6 7
214 199 182 193 201 192 202 215 267 259 275 349 144 242 98 102 122 189 160 155 165 166 153 145 133 122 95 77 54 48 59 47 38 32 26 17 4 6 352 13 354 5 7 3
200 221 176 202 202 217 169 228 16 279 229 268 247 139 169 166 175 170 146 161 162 157 146 141 135 123 93 83 62 59 56 55 41 35 22 22 10 4 5 8 357 7 3 357
54 190 196 152 179 200 251 141 197 207 263 264 178 283 297 177 173 166 163 166 159 156 148 147 142 119 100 86 87 71 59 55 44 27 28 17 8 23 12 15 10 8 7 2
228 273 142 172 207 189 173 196 233 303 317 308 303 26 26 157 178 176 168 166 159 163 153 157 141 125 105 88 73 83 68 51 39 34 14 18 17 27 17 20 15 13 0 7
209 272 192 194 41 293 306 274 198 255 196 254 300 311 50 81 158 169 165 157 159 161 153 155 147 137 132 89 87 100 74 51 28 20 22 17 23 25 24 19 19 11 9 17
161 211 174 168 165 160 225 177 230 240 272 259 293 51 64 158 148 166 159 156 157 156 161 158 153 141 133 115 121 110 85 46 20 21 27 32 28 23 19 18 27 24 12 8
199 183 246 207 183 186 179 195 194 230 258 262 257 339 149 165 164 166 159 159 162 167 165 166 162 151 150 129 141 138 106 50 41 40 32 33 31 17 15 21 18 19 11 10
209 194 162 85 113 113 228 178 187 224 283 287 18 305 129 180 177 170 162 163 165 174 176 171 174 161 159 161 157 163 139 103 56 34 33 33 29 36 30 22 15 12 15 16
191 136 144 95 187 145 173 183 192 163 168 181 269 235 60 149 160 169 174 173 176 180 182 177 172 167 168 166 184 170 164 129 75 30 24 29 32 49 41 23 21 26 14 11
170 147 181 124 19 122 207 198 192 184 193 289 238 75 147 164 176 181 177 180 181 180 181 177 172 170 163 168 175 189 179 173 203 359 48 58 49 53 38 20 20 20 11 1
150 135 103 105 136 219 69 221 230 232 198 199 142 151 170 172 173 178 176 178 180 177 176 173 167 160 157 156 180 169 184 202 223 236 67 74 54 41 13 1 17 4 353 357
226 135 96 167 223 4 237 204 198 208 216 208 188 158 153 144 150 175 174 178 175 172 169 167 157 152 147 164 178 193 196 207 227 232 4 47 20 12 15 2 352 343 332 345
122 102 199 162 237 236 7 127 178 187 245 170 169 165 154 154 190 176 175 170 160 162 158 159 152 146 147 134 171 205 208 208 228 244 305 295 331 324 17 3 349 327 314 346
173 188 200 146 197 220 139 145 167 222 81 151 166 166 166 189 31 118 154 158 154 157 154 151 153 158 145 131 147 194 219 218 223 256 272 266 293 313 0 328 299 291 304 328
202 209 191 201 221 236 146 147 220 58 95 145 162 163 170 126 127 137 150 151 153 151 149 159 161 153 144 154 192 107 276 222 220 256 268 272 288 308 322 313 314 300 304 307
210 328 358 294 34 113 174 49 91 65 127 148 158 161 154 148 140 143 150 151 151 152 159 160 160 151 155 162 216 271 1 275 230 253 275 281 295 302 330 311 313 311 287 309
161 142 266 211 153 168 178 153 148 137 121 143 151 156 153 146 143 145 151 150 151 158 158 156 163 162 161 183 188 245 283 276 243 265 284 286 284 328 320 302 351 321 318 342
39 154 179 193 163 175 197 196 144 133 133 137 143 147 150 145 145 149 153 152 154 157 155 153 172 159 141 202 200 220 268 272 221 263 292 283 285 312 335 326 330 337 347 352
182 162 210 111 133 29 100 157 147 146 141 142 144 148 148 148 146 151 151 154 154 161 149 157 154 154 176 187 201 191 200 234 230 258 274 42 349 330 353 329 355 212 261 294